THOR ABLESTAR DEB, 1511

Orbit data source: Space-Track

THOR ABLESTAR DEB, 1511 is space debris in LEO originally from a launch on Fri, 13 Aug 1965 UTC launched from the Air Force Western Test Range (AFWTR). Debris objects in space refer to the collection of defunct objects orbiting the Earth. Examples of debris include non-operational satellites, rocket bodies, and fragments generated from explosions, collisions, or faulty payload assembly.

Loading next visibility...
Identifier
1511, 1965-065D
Orbit
LEO
Last TLE update
11 hours ago
Origin
Manufacturer
NRL
Mission
Spacecraft
Bus & Motor
Unknown
Mass
Unknown
Launch date (UTC)
1965-08-13 (60 years ago)
Launch vehicle
Unknown
Launch site
Air Force Western Test Range (AFWTR)
Object type
Payload
Rocket body
Debris
Shape & HBR
Unknown
Radar Cross Section
0.550 m², Medium (>0.1 m² and < 1m²)

Expand to show TLE details & history

TLE from 11 hours ago
0 THOR ABLESTAR DEB
1 01511U 65065D   25128.75213679  .00000057  00000-0  96187-4 0  9995
2 01511  89.9787 211.9078 0066724 263.6199 212.8215 13.34161013906758
Epoch: 2025-05-08T18:03Z
Definitive object data (Epoch: 2025-05-08T18:03:04.618Z)
Latitude
64.05248°
Longitude
-105.72312°
Altitude
1,184.436 km
Speed
7.247 km/s
True Right ascension
02h 07m 27s
True Declination
63° 55' 28"
Sunlit
Object was in daylight at TLE epoch
Visualization TLE readout
Latitude
29.32579°
Longitude
-105.69243°
Altitude
1,152.968 km
Speed
7.27 km/s
Apparent Right ascension
01h 43m 04s
Apparent Declination
-2° 00' 59"
Sunlit
Object is in daylight
Visualization observer readout
Local Sidereal Time
13:10:09
Azimuth
346.753° N
Elevation
-51.37°
Doppler factor
1
Orbital elements
Apogee altitude
1,178.267 km
Perigee altitude
1,078.097 km
Semi-major axis
7,506.319 km
Eccentricity
0.0066724
Inclination
89.9787°
RAAN
211.9078°
Arg. of periapsis
263.6199°
True anomaly
212.40996°
Mean anomaly
212.8215°
Eccentric anomaly
212.61544°
Mean motion
3.33736 °/min
BSTAR
0.000096187
Orbital period
107.87 mins
Loading maneuver chart data...
Loading SW <> Apogee altitude chart data...
Loading historical data...
Loading historical data...
Loading historical data...
Loading historical data...
Loading historical data...
Loading historical data...
Loading historical data...

THOR ABLESTAR DEB Visibility forecast

Observer location: undefined°, undefined°

Span
Click to sort rows by Start time (UTC) header in descending order
Start Az.
Max El. time (UTC)
Max El. Az.
Max El.
End time (UTC)
End Az.
13 mins2025-05-09 06:09:33.044Z186.99° SSW2025-05-09 06:15:33.044Z249.62° W42.917°2025-05-09 06:22:33.044Z352.559° N
12 mins2025-05-09 17:28:33.044Z10.911° NNE2025-05-09 17:34:33.044Z98.381° ESE41.734°2025-05-09 17:40:33.044Z169.16° S
8 mins2025-05-09 19:17:33.044Z326.399° NNW2025-05-09 19:21:33.044Z285.921° WNW20.824°2025-05-09 19:25:33.044Z246.373° WSW
|